Weather History for Muscatine, IA

Change the Weather History Date:

Sunday, May 11, 2014

  Actual Average Record
Temperature  
Mean Temperature 68 °F -  
Max Temperature 80 °F 73 °F 91 °F (2011)
Min Temperature 57 °F 51 °F 35 °F (1960)
Cooling Degree Days 4    
Growing Degree Days 18 (Base 50)    
Moisture  
Dew Point 60 °F    
Average Humidity 73    
Maximum Humidity 88    
Minimum Humidity 57    
Precipitation  
Precipitation 0.00 in - - ()
Sea Level Pressure  
Sea Level Pressure 29.84 in    
Wind  
Wind Speed 7 mph (SSE)    
Max Wind Speed 22 mph    
Max Gust Speed 38 mph    
Visibility 10 miles    
Events      
Averages and records for this station are not official NWS values.
T = Trace of Precipitation, MM = Missing Value Source: NWS Daily Summary

Daily Weather History Graph

Daily Weather History Graph

Search for Another Location

Airport:

Trip Planner

Search our weather history database for the weather conditions in past years. The results will help you decide how hot, cold, wet, or windy it might be!

Date:

Astronomy

May. 11, 2014 Rise Set
Actual Time 5:49 AM CDT 8:12 PM CDT
Civil Twilight 5:18 AM CDT 8:43 PM CDT
Nautical Twilight 4:40 AM CDT 9:22 PM CDT
Astronomical Twilight 3:57 AM CDT 10:05 PM CDT
Moon 5:06 PM CDT (5/11) 3:57 AM CDT (5/11)
Length of Visible Light 15h 25m
Length of Day
14h 22m
Waxing Gibbous, 89% of the Moon is Illuminated
May 11
Waxing Gibbous
May 14
Full
May 21
Last Quarter
May 28
New
Jun 5
First Quarter

Hourly Weather History & Observations

Time (CDT) Temp. Heat Index Dew Point Humidity Pressure Visibility Wind Dir Wind Speed Gust Speed Precip Events Conditions
12:15 AM 64.4 °F - 50.0 °F 59% 29.84 in 10.0 mi SE 4.6 mph - N/A   Mostly Cloudy
12:35 AM 64.4 °F - 50.0 °F 59% 29.84 in 10.0 mi SE 4.6 mph - N/A   Scattered Clouds
12:55 AM 62.6 °F - 50.0 °F 63% 29.85 in 10.0 mi SSE 4.6 mph - N/A   Clear
1:15 AM 62.6 °F - 50.0 °F 63% 29.87 in 10.0 mi Calm Calm - N/A   Clear
1:35 AM 62.6 °F - 51.8 °F 68% 29.87 in 10.0 mi SSE 5.8 mph - N/A   Scattered Clouds
1:55 AM 64.4 °F - 53.6 °F 68% 29.87 in 10.0 mi SE 6.9 mph 12.7 mph N/A   Mostly Cloudy
2:15 AM 64.4 °F - 53.6 °F 68% 29.86 in 10.0 mi SSE 10.4 mph - N/A   Clear
2:35 AM 64.4 °F - 53.6 °F 68% 29.86 in 10.0 mi SSE 6.9 mph - N/A   Scattered Clouds
2:55 AM 62.6 °F - 55.4 °F 77% 29.85 in - SSE 4.6 mph - N/A   Partly Cloudy
3:15 AM 62.6 °F - 55.4 °F 77% 29.85 in 10.0 mi SSE 6.9 mph - N/A   Clear
3:35 AM 60.8 °F - 55.4 °F 82% 29.86 in 10.0 mi South 4.6 mph - N/A   Clear
3:55 AM 59.0 °F - 55.4 °F 88% 29.86 in 10.0 mi South 6.9 mph - N/A   Clear
4:15 AM 59.0 °F - 55.4 °F 88% 29.86 in 10.0 mi South 4.6 mph - N/A   Clear
4:35 AM 60.8 °F - 55.4 °F 82% 29.86 in 10.0 mi Calm Calm - N/A   Clear
4:55 AM 59.0 °F - 55.4 °F 88% 29.86 in 10.0 mi Calm Calm - N/A   Clear
5:15 AM 59.0 °F - 55.4 °F 88% 29.86 in 10.0 mi Calm Calm - N/A   Clear
5:35 AM 57.2 °F - 53.6 °F 88% 29.86 in 10.0 mi Calm Calm - N/A   Clear
5:55 AM 60.8 °F - 55.4 °F 82% 29.86 in 10.0 mi SSE 4.6 mph - N/A   Clear
6:15 AM 60.8 °F - 57.2 °F 88% 29.86 in 10.0 mi SSE 4.6 mph - N/A   Clear
6:35 AM 60.8 °F - 55.4 °F 82% 29.87 in 10.0 mi Calm Calm - N/A   Clear
6:55 AM 60.8 °F - 57.2 °F 88% 29.87 in 10.0 mi Calm Calm - N/A   Clear
7:15 AM 62.6 °F - 57.2 °F 82% 29.87 in 10.0 mi SE 4.6 mph - N/A   Clear
7:35 AM 64.4 °F - 57.2 °F 77% 29.88 in 10.0 mi SSE 5.8 mph - N/A   Clear
7:55 AM 64.4 °F - 57.2 °F 77% 29.88 in 10.0 mi SE 4.6 mph - N/A   Clear
8:15 AM 64.4 °F - 57.2 °F 77% 29.89 in 10.0 mi SE 3.5 mph - N/A   Clear
8:35 AM 66.2 °F - 59.0 °F 78% 29.89 in 10.0 mi SSE 4.6 mph - N/A   Clear
8:55 AM 68.0 °F - 59.0 °F 73% 29.89 in 10.0 mi SSE 6.9 mph - N/A   Clear
9:15 AM 71.6 °F - 59.0 °F 64% 29.89 in 10.0 mi South 9.2 mph - N/A   Clear
9:35 AM 73.4 °F - 59.0 °F 61% 29.88 in 10.0 mi South 17.3 mph 25.3 mph N/A   Clear
9:55 AM 75.2 °F - 60.8 °F 61% 29.88 in 10.0 mi South 17.3 mph 24.2 mph N/A   Clear
10:15 AM 77.0 °F - 60.8 °F 57% 29.87 in 10.0 mi South 15.0 mph 24.2 mph N/A   Clear
10:35 AM 78.8 °F - 62.6 °F 57% 29.86 in 10.0 mi South 20.7 mph 26.5 mph N/A   Clear
10:55 AM 80.6 °F 82.3 °F 64.4 °F 58% 29.87 in 10.0 mi SSW 16.1 mph 27.6 mph N/A   Clear
11:15 AM 80.6 °F 82.3 °F 64.4 °F 58% 29.87 in 10.0 mi SSW 15.0 mph 23.0 mph N/A   Clear
11:35 AM 78.8 °F - 64.4 °F 61% 29.87 in 10.0 mi SSW 18.4 mph 24.2 mph N/A   Clear
11:55 AM 78.8 °F - 64.4 °F 61% 29.87 in 10.0 mi South 13.8 mph - N/A   Clear
12:15 PM 78.8 °F - 64.4 °F 61% 29.87 in 10.0 mi South 12.7 mph 18.4 mph N/A   Clear
12:35 PM 78.8 °F - 64.4 °F 61% 29.87 in 10.0 mi South 13.8 mph - N/A   Clear
12:55 PM 77.0 °F - 64.4 °F 65% 29.86 in 10.0 mi South 10.4 mph - N/A   Clear
1:15 PM 77.0 °F - 64.4 °F 65% 29.87 in 10.0 mi SSW 4.6 mph - N/A   Clear
1:35 PM 77.0 °F - 66.2 °F 69% 29.88 in 10.0 mi SW 4.6 mph - N/A   Clear
1:55 PM 77.0 °F - 64.4 °F 65% 29.88 in 10.0 mi WSW 3.5 mph - N/A   Clear
2:15 PM 77.0 °F - 64.4 °F 65% 29.88 in 10.0 mi Calm Calm - N/A   Clear
2:35 PM 77.0 °F - 64.4 °F 65% 29.88 in 10.0 mi Calm Calm - N/A   Clear
2:55 PM 75.2 °F - 64.4 °F 69% 29.89 in 10.0 mi North 6.9 mph - N/A   Scattered Clouds
3:15 PM 73.4 °F - 64.4 °F 73% 29.88 in 10.0 mi North 8.1 mph - N/A   Mostly Cloudy
3:35 PM 73.4 °F - 64.4 °F 73% 29.86 in 10.0 mi North 12.7 mph - N/A   Mostly Cloudy
3:55 PM 71.6 °F - 64.4 °F 78% 29.86 in 10.0 mi North 12.7 mph - N/A   Scattered Clouds
4:15 PM 69.8 °F - 64.4 °F 83% 29.86 in 10.0 mi North 11.5 mph - N/A   Mostly Cloudy
4:35 PM 69.8 °F - 64.4 °F 83% 29.85 in 10.0 mi ENE 11.5 mph - N/A   Mostly Cloudy
4:55 PM 71.6 °F - 64.4 °F 78% 29.78 in 9.0 mi ESE 17.3 mph 27.6 mph N/A   Mostly Cloudy
5:15 PM 71.6 °F - 64.4 °F 78% 29.77 in 10.0 mi SSE 10.4 mph - N/A   Mostly Cloudy
5:35 PM 73.4 °F - 64.4 °F 73% 29.76 in 10.0 mi SSE 18.4 mph 38.0 mph N/A   Mostly Cloudy
5:55 PM 71.6 °F - 62.6 °F 73% 29.73 in 10.0 mi SSE 15.0 mph 27.6 mph N/A   Scattered Clouds
6:15 PM 71.6 °F - 64.4 °F 78% 29.76 in 10.0 mi SSE 21.9 mph 29.9 mph N/A   Partly Cloudy
6:35 PM 69.8 °F - 60.8 °F 73% 29.76 in 10.0 mi SSE 16.1 mph 27.6 mph N/A   Clear
6:55 PM 73.4 °F - 59.0 °F 61% 29.75 in 10.0 mi South 12.7 mph - N/A   Clear
7:15 PM 73.4 °F - 59.0 °F 61% 29.75 in 10.0 mi SSE 8.1 mph 15.0 mph N/A   Clear
7:35 PM 73.4 °F - 60.8 °F 65% 29.75 in 10.0 mi SSE 11.5 mph - N/A   Clear
7:55 PM 73.4 °F - 60.8 °F 65% 29.76 in 10.0 mi SSE 8.1 mph - N/A   Clear
8:15 PM 71.6 °F - 60.8 °F 69% 29.76 in 10.0 mi SSE 6.9 mph - N/A   Clear
8:35 PM 69.8 °F - 60.8 °F 73% 29.78 in 10.0 mi Calm Calm - N/A   Clear
8:55 PM 68.0 °F - 60.8 °F 78% 29.77 in 10.0 mi Calm Calm - N/A   Clear
9:15 PM 66.2 °F - 59.0 °F 78% 29.78 in 10.0 mi Calm Calm - N/A   Clear
9:35 PM 66.2 °F - 59.0 °F 78% 29.78 in 10.0 mi Calm Calm - N/A   Clear
9:55 PM 64.4 °F - 59.0 °F 83% 29.79 in 10.0 mi Calm Calm - N/A   Clear
10:15 PM 64.4 °F - 60.8 °F 88% 29.79 in 10.0 mi Calm Calm - N/A   Clear
10:35 PM 66.2 °F - 62.6 °F 88% 29.78 in 10.0 mi SE 5.8 mph - N/A   Clear
10:55 PM 69.8 °F - 62.6 °F 78% 29.79 in 10.0 mi SE 12.7 mph 20.7 mph N/A   Clear
11:15 PM 69.8 °F - 60.8 °F 73% 29.79 in 10.0 mi SSE 8.1 mph 13.8 mph N/A   Clear
11:35 PM 68.0 °F - 60.8 °F 78% 29.78 in 10.0 mi SE 12.7 mph - N/A   Clear
11:55 PM 68.0 °F - 60.8 °F 78% 29.78 in 10.0 mi SE 10.4 mph - N/A   Clear